THOR ABLESTAR DEB, 145

Orbit data source: Space-Track

THOR ABLESTAR DEB, 145 is space debris in LEO originally from a launch on Thu, 29 Jun 1961 UTC launched from the Air Force Eastern Test Range (AFETR). Debris objects in space refer to the collection of defunct objects orbiting the Earth. Examples of debris include non-operational satellites, rocket bodies, and fragments generated from explosions, collisions, or faulty payload assembly.

Loading next visibility...
Identifier
145, 1961-015AF
Orbit
LEO
Country
Flag of USUS
Related business
Manufacturer
Unknown
Mission
Spacecraft
Bus & Motor
Unknown
Mass
Unknown
Launch date (UTC)
1961-06-29 (65 years ago)
Launch vehicle
Unknown
Launch site
Air Force Eastern Test Range (AFETR)
Object type
Payload
Rocket body
Debris
Shape & HBR
Unknown shape, 0.4 m
Radar Cross Section
Medium (>0.1 m² and <1 m²)

Expand to show TLE details & history
Last TLE update: 11 hours ago

TLE from 11 hours ago
0 THOR ABLESTAR DEB
1 00145U 61015AF  26110.39856091  .00000328  00000-0  25507-3 0  9999
2 00145  66.9257 166.1430 0066002 333.4446  26.3264 14.03258205308609
Epoch: 2026-04-20T09:33Z
TLE epoch observation values (Epoch: 2026-04-20T09:33:55.662Z)
Latitude
0.00003°
Longitude
174.17182°
Altitude
841.739 km
Speed
7.454 km/s
True Right ascension
11h 04m 34s
True Declination
0° 00' 00"
Sunlit
Object was in full shadow at epoch
Visualization orbit readout
Latitude
Unknown
Longitude
Unknown
Altitude
Unknown
Speed
Unknown
Apparent Right ascension
Unknown
Apparent Declination
Unknown
Sunlit
N/A
Visualization observer readout
Local Sidereal Time
03:51:45
Azimuth
Unknown
Elevation
Unknown
Doppler factor
Unknown
Orbital elements
Apogee altitude
928.815 km
Perigee altitude
832.993 km
Semi-major axis
7,259.041 km
Eccentricity
0.0066
Inclination
66.9257°
RAAN
166.143°
Arg. of periapsis
333.4446°
True anomaly
26.66432°
Mean anomaly
26.3264°
Eccentric anomaly
26.49511°
Mean motion
3.50933 °/min
Orbital period
102.58 mins
BSTAR
0.00025507
Loading maneuver chart data...
Computing Atmospheric mass density...

Documentation

Showing up to 5 results
|